Tracking 22100 objects as of 19-Jan-2021
HD Live streaming from Space Station
objects crossing your sky now

SS 1

Track SS 1 now!
10-day predictions
SS 1 is classified as:


NORAD ID: 10529
Int'l Code: 1977-112D
Perigee: 430.6 km
Apogee: 1,497.1 km
Inclination: 63.3 °
Period: 104.2 minutes
Semi major axis: 7334 km
RCS: Unknown
Launch date: December 8, 1977
Source: United States (US)
Launch site: AIR FORCE WESTERN TEST RANGE (AFWTR)
aabbcc
Your satellite tracking list
Your tracking list is empty




NASA's NSSDC Master Catalog

Two Line Element Set (TLE):
1 10529U 77112D   21018.64079107  .00000216  00000-0  43553-4 0  9994
2 10529  63.3110  93.2330 0726961 131.8061 234.7468 13.82025841 78377
Source of the keplerian elements: McCants